Temp
2 1 0 -1 -2 -2 -3 -3 -3 -3 -3 -4 -4 -4 -5 -5 -6 -6 -7 -8 -9 -10 -11 -11 -11 -12 -13 -14 -15 -16 -15 -16 -15 -13 -14 -14 -14 -13 -12 -11 -11 -10 -9
1 0 -0 -1 -2 -3 -3 -3 -3 -4 -4 -4 -5 -5 -5 -6 -6 -7 -8 -9 -10 -10 -11 -11 -12 -12 -13 -14 -15 -15 -15 -15 -15 -14 -14 -13 -13 -13 -12 -11 -10 -10 -9
1 -0 -1 -2 -3 -3 -3 -4 -4 -4 -4 -5 -5 -5 -6 -6 -6 -7 -8 -9 -10 -11 -11 -11 -12 -12 -13 -14 -14 -15 -15 -15 -15 -15 -13 -13 -13 -13 -11 -11 -10 -9 -8
-0 -1 -2 -3 -3 -3 -4 -4 -4 -4 -5 -5 -5 -6 -6 -6 -7 -8 -9 -10 -10 -10 -11 -12 -12 -12 -13 -13 -14 -14 -14 -14 -15 -14 -13 -12 -12 -12 -11 -10 -9 -9 -8
-1 -2 -3 -3 -4 -4 -4 -4 -4 -5 -5 -5 -6 -6 -6 -7 -7 -8 -9 -10 -10 -10 -11 -12 -12 -12 -13 -13 -14 -14 -15 -15 -15 -14 -13 -13 -12 -11 -11 -10 -9 -8 -8
-2 -2 -3 -4 -4 -4 -5 -5 -5 -5 -6 -6 -6 -7 -7 -7 -8 -9 -10 -10 -10 -11 -11 -12 -12 -13 -13 -13 -14 -14 -15 -15 -15 -14 -13 -13 -12 -11 -11 -10 -9 -8 -7
-2 -3 -4 -4 -5 -5 -5 -5 -5 -6 -6 -6 -7 -7 -7 -8 -8 -9 -10 -10 -11 -11 -11 -12 -12 -13 -13 -13 -13 -14 -14 -15 -15 -14 -13 -13 -12 -12 -11 -10 -9 -8 -8
-3 -3 -4 -5 -5 -6 -6 -6 -6 -6 -7 -7 -7 -7 -8 -8 -9 -9 -10 -11 -11 -12 -12 -12 -13 -13 -13 -13 -13 -13 -13 -14 -14 -14 -13 -13 -12 -11 -11 -10 -9 -8 -8
-4 -4 -5 -6 -6 -6 -7 -6 -7 -7 -7 -7 -8 -8 -8 -9 -9 -10 -11 -11 -12 -12 -12 -12 -13 -13 -13 -13 -13 -13 -13 -14 -14 -14 -13 -13 -12 -11 -10 -9 -9 -9 -8
-4 -5 -5 -6 -6 -7 -7 -7 -7 -7 -8 -8 -8 -8 -8 -9 -10 -11 -11 -12 -12 -12 -12 -12 -13 -13 -13 -13 -13 -13 -12 -13 -13 -13 -13 -13 -12 -11 -11 -10 -9 -9 -8
-6 -5 -6 -6 -7 -8 -7 -7 -8 -8 -8 -8 -8 -9 -9 -10 -11 -11 -12 -12 -12 -12 -12 -13 -13 -13 -13 -13 -13 -13 -13 -13 -13 -13 -13 -12 -12 -11 -11 -10 -10 -9 -8
-5 -6 -7 -7 -8 -8 -8 -8 -8 -8 -8 -9 -9 -10 -10 -11 -11 -12 -12 -12 -13 -13 -13 -13 -13 -13 -13 -13 -13 -13 -13 -13 -12 -13 -13 -12 -11 -11 -10 -10 -10 -8 -8
-6 -7 -7 -8 -9 -8 -8 -8 -9 -9 -9 -9 -10 -10 -11 -11 -12 -12 -12 -13 -13 -13 -13 -13 -13 -13 -13 -13 -13 -13 -13 -13 -12 -12 -12 -12 -11 -11 -10 -9 -9 -8 -8
-7 -7 -8 -9 -9 -8 -9 -9 -9 -9 -9 -10 -10 -10 -11 -11 -12 -12 -12 -13 -13 -13 -13 -13 -13 -13 -13 -13 -13 -13 -13 -13 -13 -12 -12 -12 -11 -11 -10 -9 -9 -8 -8
-8 -8 -9 -10 -9 -9 -9 -9 -9 -10 -10 -10 -10 -10 -11 -11 -12 -13 -13 -14 -14 -14 -14 -14 -13 -13 -13 -14 -14 -13 -13 -13 -13 -12 -12 -12 -12 -11 -10 -9 -9 -9 -8
-9 -10 -10 -10 -10 -10 -10 -10 -10 -10 -11 -11 -11 -12 -12 -13 -13 -14 -14 -14 -14 -14 -14 -14 -14 -14 -14 -14 -14 -14 -14 -13 -13 -12 -12 -12 -12 -11 -10 -9 -9 -9 -9
-11 -11 -10 -10 -10 -10 -10 -11 -12 -12 -12 -12 -12 -13 -13 -13 -14 -14 -15 -14 -14 -15 -15 -15 -15 -15 -15 -15 -15 -14 -14 -13 -13 -13 -12 -12 -12 -11 -10 -10 -9 -9 -9
-11 -11 -11 -11 -11 -11 -11 -12 -12 -12 -13 -14 -14 -13 -14 -14 -14 -14 -14 -15 -15 -15 -15 -15 -15 -15 -15 -15 -15 -14 -14 -14 -13 -13 -13 -12 -12 -11 -10 -10 -9 -9 -9
-12 -11 -11 -11 -12 -12 -12 -12 -12 -12 -13 -13 -14 -14 -14 -14 -14 -15 -15 -15 -15 -15 -15 -15 -16 -15 -15 -15 -15 -15 -14 -14 -13 -13 -13 -13 -12 -11 -11 -10 -10 -9 -9
-12 -12 -12 -12 -13 -13 -13 -13 -13 -13 -14 -14 -14 -14 -14 -14 -15 -15 -15 -15 -15 -15 -16 -16 -16 -16 -15 -15 -15 -15 -14 -14 -13 -13 -12 -12 -12 -12 -11 -10 -10 -10 -9
-13 -13 -13 -13 -14 -14 -14 -14 -14 -14 -14 -15 -15 -15 -15 -16 -16 -16 -16 -16 -16 -16 -16 -16 -16 -16 -15 -15 -15 -15 -14 -14 -14 -13 -13 -12 -12 -12 -12 -11 -10 -9 -9
-14 -14 -14 -14 -14 -15 -15 -15 -15 -15 -15 -16 -16 -16 -16 -17 -16 -16 -16 -16 -16 -16 -16 -17 -17 -16 -15 -15 -15 -15 -14 -14 -14 -13 -13 -12 -12 -12 -12 -11 -10 -10 -9
-15 -15 -15 -15 -15 -16 -16 -16 -16 -16 -16 -16 -17 -17 -17 -17 -17 -17 -17 -17 -17 -16 -16 -17 -17 -16 -16 -15 -15 -15 -15 -14 -14 -14 -13 -13 -12 -12 -12 -12 -11 -10 -10
-16 -16 -16 -16 -17 -17 -17 -17 -17 -17 -17 -18 -18 -18 -18 -18 -18 -17 -18 -17 -17 -17 -17 -17 -17 -16 -15 -15 -15 -15 -15 -15 -14 -14 -13 -13 -12 -12 -12 -11 -11 -10 -10
-17 -17 -17 -17 -18 -18 -18 -18 -18 -18 -18 -18 -18 -18 -18 -18 -18 -18 -18 -18 -18 -17 -17 -17 -17 -16 -16 -15 -15 -15 -15 -14 -14 -14 -13 -13 -12 -12 -12 -12 -11 -10 -10
-18 -18 -18 -19 -19 -19 -19 -19 -19 -19 -19 -19 -19 -19 -19 -18 -18 -19 -19 -19 -18 -18 -17 -17 -17 -17 -16 -15 -15 -14 -14 -14 -14 -14 -13 -13 -12 -12 -12 -12 -11 -11 -10
Height
3016 3018 3019 3021 3020 3020 3019 3018 3016 3013 3009 3004 3000 2995 2989 2983 2976 2969 2962 2955 2948 2941 2934 2926 2920 2911 2903 2894 2885 2879 2873 2866 2856 2854 2851 2848 2845 2840 2839 2837 2834 2833 2834
3008 3010 3012 3013 3013 3013 3012 3011 3008 3005 3001 2997 2992 2987 2981 2975 2968 2962 2955 2948 2940 2935 2928 2921 2914 2906 2898 2889 2881 2875 2868 2864 2855 2847 2847 2844 2841 2837 2834 2832 2830 2829 2827
3001 3004 3005 3006 3006 3006 3005 3004 3001 2998 2994 2989 2984 2980 2974 2968 2962 2955 2948 2941 2935 2928 2921 2915 2908 2900 2893 2885 2878 2870 2864 2859 2854 2846 2843 2841 2837 2832 2830 2828 2825 2823 2822
2995 2997 2998 2999 2999 2999 2998 2996 2993 2990 2986 2982 2977 2972 2967 2961 2955 2948 2941 2935 2929 2923 2916 2909 2902 2896 2888 2881 2875 2867 2860 2855 2850 2846 2841 2837 2834 2831 2826 2822 2821 2818 2818
2988 2990 2991 2992 2992 2992 2991 2988 2986 2983 2979 2974 2970 2965 2960 2953 2947 2940 2933 2928 2922 2915 2910 2903 2896 2889 2883 2877 2870 2864 2858 2853 2848 2843 2839 2835 2831 2828 2823 2821 2816 2815 2815
2981 2983 2984 2985 2985 2985 2983 2981 2979 2975 2972 2967 2963 2959 2954 2947 2940 2933 2926 2921 2915 2909 2903 2897 2891 2885 2880 2875 2869 2863 2857 2850 2846 2841 2838 2834 2830 2825 2822 2817 2814 2812 2806
2974 2976 2977 2978 2978 2977 2976 2974 2972 2969 2965 2961 2956 2952 2947 2940 2933 2926 2920 2915 2910 2904 2897 2891 2886 2880 2874 2871 2866 2860 2856 2850 2845 2840 2836 2833 2828 2823 2821 2818 2814 2811 2807
2968 2969 2970 2970 2970 2969 2968 2967 2965 2962 2958 2955 2950 2945 2940 2933 2927 2920 2914 2909 2904 2899 2893 2886 2879 2875 2870 2865 2861 2857 2853 2848 2843 2840 2835 2831 2827 2823 2820 2817 2814 2811 2807
2962 2963 2963 2962 2962 2962 2961 2960 2958 2955 2951 2948 2943 2938 2933 2927 2921 2913 2906 2901 2897 2893 2887 2881 2874 2868 2864 2860 2854 2851 2848 2845 2841 2837 2834 2830 2826 2824 2820 2817 2814 2810 2805
2956 2956 2955 2955 2955 2955 2954 2953 2951 2948 2945 2942 2936 2931 2926 2921 2914 2907 2900 2894 2889 2884 2881 2875 2870 2863 2858 2854 2849 2846 2843 2841 2838 2836 2833 2829 2825 2823 2820 2818 2813 2810 2805
2947 2947 2947 2948 2948 2949 2948 2946 2944 2941 2939 2935 2931 2925 2920 2914 2908 2902 2896 2889 2883 2877 2873 2867 2863 2857 2852 2847 2844 2840 2838 2836 2834 2832 2830 2826 2823 2822 2820 2818 2813 2811 2807
2939 2940 2941 2942 2942 2942 2941 2940 2938 2935 2932 2928 2925 2920 2914 2909 2902 2896 2890 2884 2878 2871 2866 2860 2855 2850 2845 2840 2837 2835 2833 2831 2829 2828 2827 2824 2822 2821 2819 2817 2815 2813 2810
2933 2935 2935 2936 2936 2936 2935 2934 2932 2929 2925 2922 2918 2914 2910 2904 2899 2893 2887 2880 2874 2867 2860 2853 2847 2843 2837 2832 2829 2828 2827 2826 2825 2824 2824 2822 2820 2820 2818 2816 2816 2815 2813
2928 2929 2929 2930 2931 2930 2929 2928 2925 2923 2919 2916 2912 2909 2904 2898 2893 2888 2882 2875 2868 2861 2854 2847 2841 2835 2829 2823 2821 2821 2821 2820 2821 2821 2821 2820 2819 2819 2817 2817 2817 2818 2817
2922 2923 2924 2925 2925 2924 2923 2921 2919 2916 2914 2911 2907 2903 2898 2893 2887 2880 2873 2867 2860 2854 2847 2841 2835 2829 2823 2818 2815 2814 2815 2816 2817 2818 2818 2818 2818 2819 2818 2818 2819 2820 2819
2916 2918 2920 2920 2919 2918 2916 2915 2913 2910 2908 2905 2900 2895 2891 2886 2880 2875 2868 2863 2856 2849 2843 2834 2829 2823 2816 2812 2810 2810 2810 2813 2814 2815 2815 2815 2816 2818 2818 2819 2821 2823 2823
2912 2914 2915 2916 2915 2914 2913 2909 2905 2903 2902 2899 2896 2892 2888 2883 2877 2871 2865 2859 2851 2844 2838 2831 2824 2817 2811 2808 2806 2806 2807 2809 2811 2814 2816 2815 2816 2818 2818 2820 2822 2825 2826
2908 2910 2911 2911 2910 2909 2908 2907 2905 2902 2899 2895 2891 2889 2884 2880 2874 2868 2861 2855 2850 2843 2834 2826 2819 2813 2808 2805 2803 2803 2804 2806 2808 2811 2814 2815 2815 2817 2819 2821 2823 2827 2830
2904 2906 2907 2906 2906 2905 2904 2902 2900 2898 2896 2894 2890 2885 2881 2877 2871 2864 2858 2851 2844 2837 2831 2824 2816 2810 2806 2803 2801 2800 2801 2803 2805 2808 2812 2815 2815 2816 2820 2822 2825 2829 2832
2901 2902 2902 2902 2902 2901 2899 2897 2895 2893 2891 2888 2885 2881 2877 2872 2867 2861 2855 2847 2840 2833 2826 2820 2814 2808 2803 2800 2798 2797 2798 2800 2802 2805 2809 2812 2815 2817 2820 2822 2826 2830 2835
2897 2898 2898 2898 2898 2897 2895 2894 2892 2889 2886 2883 2880 2876 2871 2866 2862 2856 2850 2844 2837 2830 2823 2817 2811 2805 2801 2798 2796 2795 2796 2797 2799 2803 2806 2809 2812 2814 2818 2821 2825 2830 2836
2894 2894 2895 2895 2894 2893 2892 2891 2888 2886 2883 2880 2876 2873 2869 2865 2860 2854 2848 2842 2835 2829 2822 2815 2809 2803 2798 2796 2794 2793 2794 2795 2797 2801 2804 2808 2811 2814 2817 2822 2826 2831 2837
2891 2891 2892 2892 2891 2890 2889 2887 2885 2883 2879 2876 2873 2870 2866 2862 2857 2851 2846 2839 2833 2827 2820 2813 2807 2802 2797 2794 2793 2792 2792 2793 2794 2798 2803 2807 2810 2813 2817 2821 2826 2831 2836
2889 2889 2889 2889 2888 2887 2886 2884 2882 2879 2876 2873 2870 2866 2863 2859 2854 2849 2844 2837 2831 2824 2818 2811 2805 2800 2795 2793 2791 2790 2790 2791 2793 2796 2800 2805 2808 2811 2815 2820 2825 2830 2835
2886 2886 2886 2886 2885 2885 2883 2881 2879 2876 2873 2871 2868 2864 2861 2857 2852 2847 2842 2835 2828 2822 2816 2810 2803 2798 2794 2791 2790 2789 2789 2790 2791 2794 2798 2802 2806 2810 2814 2818 2823 2828 2834
2883 2884 2884 2883 2882 2881 2880 2878 2876 2874 2871 2868 2865 2861 2857 2853 2848 2844 2839 2833 2827 2820 2814 2808 2802 2797 2792 2790 2789 2788 2788 2789 2790 2793 2796 2800 2805 2808 2812 2817 2822 2827 2833
Wind_Speed
21 21 21 24 25 27 27 28 31 33 34 34 34 35 37 41 43 44 43 40 39 39 40 43 43 42 40 40 36 32 30 33 37 26 21 17 15 19 16 17 21 21 22
22 21 21 25 26 27 26 28 31 32 33 33 34 34 37 41 43 44 41 38 38 38 40 41 41 40 37 37 35 30 29 29 32 31 17 15 16 18 19 18 20 20 21
21 20 23 24 25 25 26 29 30 31 32 32 33 34 37 40 43 43 39 37 37 38 39 40 39 38 36 35 34 28 25 25 25 29 22 19 17 20 18 18 18 18 20
20 19 22 23 24 24 26 29 29 30 30 31 33 34 37 40 42 41 38 36 35 35 37 37 36 36 34 33 33 28 25 24 23 23 23 20 19 17 20 19 14 16 17
20 20 22 23 23 24 27 28 29 30 30 31 32 34 37 40 41 40 37 36 35 35 35 36 35 35 33 32 33 31 27 24 23 23 22 21 19 17 19 17 17 13 16
20 20 22 23 23 25 27 28 28 28 29 31 32 34 36 39 40 38 36 36 34 34 34 34 33 32 31 29 27 27 27 26 25 25 22 22 18 20 18 18 18 11 17
22 22 23 24 24 26 27 27 27 27 28 30 31 33 35 37 38 37 35 34 33 33 33 33 33 30 30 29 25 24 25 24 25 26 24 21 19 20 19 16 13 11 19
25 24 25 24 25 27 26 27 25 26 28 29 30 33 34 36 36 36 35 33 32 32 32 32 33 30 28 29 27 22 21 21 24 21 21 19 19 19 19 18 9 11 15
27 26 26 25 27 25 24 25 24 25 27 28 30 32 33 34 34 34 35 34 33 31 31 31 33 30 29 27 28 25 21 19 22 22 19 19 19 16 17 16 11 13 15
29 28 28 26 26 22 23 23 24 24 25 26 28 31 33 33 33 33 33 35 34 34 31 31 29 29 29 28 27 28 22 20 21 18 16 17 19 14 15 16 12 11 20
30 29 27 26 22 20 22 22 22 23 24 25 26 29 32 33 31 31 31 33 34 36 34 33 30 31 30 29 26 28 25 22 20 18 16 15 15 13 12 12 13 11 16
29 28 24 22 18 20 21 21 21 22 23 24 25 27 30 30 30 30 31 32 33 35 35 33 32 31 31 29 27 26 24 23 21 17 15 14 13 10 11 9 10 6 14
27 23 21 18 16 19 20 20 19 21 22 23 24 25 27 28 27 28 29 30 30 32 33 33 34 32 32 31 28 25 23 21 19 17 14 13 12 8 9 7 6 4 10
22 20 17 14 17 19 18 18 19 20 21 23 24 25 26 28 28 28 28 30 31 32 33 34 35 35 34 32 25 23 22 20 18 15 14 12 12 8 8 6 4 1 7
19 17 13 13 17 18 17 18 19 20 20 22 24 26 27 28 29 30 31 33 34 35 36 35 35 36 33 26 22 20 18 19 17 14 13 12 11 7 7 6 5 3 5
15 12 11 14 15 16 17 18 18 20 21 22 24 26 27 30 31 31 30 32 34 35 36 38 36 35 29 22 18 17 17 18 17 15 13 12 11 8 7 7 7 6 5
10 11 12 13 13 13 14 16 21 22 21 21 22 24 26 28 30 30 30 30 33 36 36 35 35 32 24 18 16 15 16 17 17 15 12 13 12 9 8 9 11 9 4
11 11 12 12 11 11 12 13 14 15 18 20 22 22 23 25 28 29 30 30 30 31 34 33 33 29 22 17 14 13 15 18 17 15 14 13 12 9 10 11 13 13 8
9 10 11 10 10 10 11 12 14 15 15 16 19 21 21 23 25 28 30 31 33 33 32 30 30 28 22 16 13 12 13 18 18 16 15 14 12 11 12 14 15 17 13
9 9 9 9 9 10 11 12 14 15 16 17 19 20 21 23 25 27 29 31 33 33 32 30 29 26 21 16 12 11 12 17 19 17 16 15 13 12 13 16 17 20 19
10 8 8 7 8 9 10 12 13 14 15 17 19 21 24 26 28 29 31 31 33 33 32 30 28 26 20 15 11 10 10 14 19 18 16 17 14 12 14 16 19 22 25
8 6 6 7 8 9 10 11 12 13 14 15 17 20 22 24 26 28 29 30 31 31 31 29 28 26 20 13 10 9 9 12 17 19 18 18 17 15 15 17 21 22 26
6 6 6 7 8 8 10 11 12 13 15 16 18 19 21 23 25 27 29 30 31 30 29 28 26 24 18 12 9 9 10 11 15 19 20 20 18 17 18 19 22 23 25
6 6 6 7 7 8 9 11 12 13 15 16 18 20 21 23 25 27 29 30 30 30 29 27 25 23 17 10 8 8 9 11 15 18 20 20 20 19 20 20 23 25 26
6 7 7 7 7 8 10 11 12 14 15 17 18 19 21 23 23 25 27 29 30 30 29 27 24 21 16 9 7 6 7 8 13 18 20 21 21 20 20 21 24 27 28
7 8 7 8 8 9 11 12 13 14 15 17 19 20 22 23 24 25 26 27 30 30 29 27 24 20 16 9 6 6 7 8 12 17 20 21 21 21 21 23 26 29 30
Wind_Direction
234 239 253 265 270 278 284 288 297 301 303 306 308 312 316 320 323 323 321 320 320 322 322 324 325 326 328 331 325 319 315 310 309 319 320 327 322 304 295 286 278 268 262
228 243 260 266 272 279 281 291 298 301 303 305 309 312 317 320 322 321 321 320 320 322 321 323 325 326 329 334 330 322 314 310 310 312 326 323 316 306 301 289 280 269 253
233 253 264 268 274 276 283 294 298 301 303 305 309 313 317 320 321 320 320 321 319 322 320 322 325 325 330 336 334 326 316 313 311 309 322 324 323 310 302 290 284 274 268
238 261 266 270 273 275 288 296 299 301 303 306 310 313 317 321 320 320 320 320 318 319 319 321 323 324 330 334 335 333 327 324 319 316 321 327 326 309 303 307 282 278 273
245 266 268 271 271 279 292 296 298 300 303 306 309 313 318 320 320 320 319 319 320 320 319 321 324 325 330 333 333 334 330 328 323 322 326 328 324 312 305 307 304 271 312
247 263 269 272 272 283 292 295 297 300 304 306 309 315 319 319 320 320 318 319 321 320 319 320 321 323 324 325 328 329 326 326 326 323 328 331 322 314 315 317 309 303 333
245 261 269 271 273 285 291 293 296 300 304 306 310 316 319 320 320 318 317 320 320 319 319 319 319 319 319 320 323 323 321 321 318 320 325 328 320 314 320 312 305 315 340
243 259 267 269 275 286 289 292 296 300 303 307 312 316 321 320 320 319 318 321 320 319 320 318 316 317 316 315 316 317 314 314 310 314 318 324 317 321 319 316 301 297 346
246 258 265 267 277 282 288 292 297 300 305 310 313 318 320 319 321 320 320 320 319 320 320 319 316 318 315 311 310 311 313 312 307 311 318 317 311 317 314 316 298 307 336
248 257 261 268 277 283 287 291 297 301 306 310 316 319 319 322 323 323 320 318 319 321 320 318 315 314 313 311 306 304 304 306 305 305 309 305 306 317 318 315 301 314 340
245 255 262 273 278 283 286 292 297 303 308 314 319 320 321 323 323 322 319 318 319 320 322 321 320 316 312 307 303 298 298 296 300 305 303 298 302 314 312 305 304 317 341
253 258 270 274 277 283 288 293 299 304 311 317 320 321 321 322 323 323 321 320 322 320 320 320 320 316 311 305 300 294 289 286 292 299 295 293 297 305 302 297 304 326 348
255 267 271 271 277 283 288 295 302 308 314 317 319 320 319 322 325 324 321 321 318 318 321 325 322 318 312 306 298 289 280 278 280 289 288 286 288 295 293 290 298 334 353
263 265 265 269 277 283 289 295 303 309 314 318 319 318 322 327 328 327 324 325 326 326 328 329 326 323 320 312 300 281 271 269 270 278 276 278 278 282 286 279 260 268 5
256 255 260 269 277 283 290 300 308 311 316 318 318 323 328 330 332 333 333 332 332 331 331 329 327 324 320 309 296 276 260 259 259 264 264 270 272 260 266 250 214 166 39
245 251 259 267 276 286 298 305 310 314 320 322 326 330 333 333 333 333 335 334 331 331 333 331 329 326 321 312 294 269 250 245 251 249 243 251 259 248 239 223 201 166 63
235 247 260 268 276 289 300 311 318 319 319 324 329 329 331 331 331 333 333 334 334 333 332 330 330 330 326 313 296 271 244 236 242 246 240 242 246 235 225 215 195 173 107
227 245 257 266 278 289 297 301 303 308 313 320 325 328 331 332 330 329 334 338 335 332 333 334 335 333 328 315 297 274 244 232 235 235 227 233 242 229 210 205 197 177 157
230 246 255 267 281 289 295 302 307 309 311 315 321 327 332 332 333 339 337 337 338 339 339 339 338 335 329 316 299 275 244 230 230 228 222 220 233 227 204 200 195 184 172
236 250 263 275 284 294 305 312 314 317 320 324 327 330 332 337 344 343 342 343 342 342 342 342 340 337 329 318 300 274 247 229 227 225 215 215 223 224 203 198 192 185 183
239 250 262 278 293 303 310 314 316 320 326 330 335 338 341 346 346 344 346 347 345 343 343 343 341 339 331 318 299 272 248 229 226 220 212 214 219 222 203 196 193 188 191
241 253 270 285 295 307 315 318 323 328 332 335 338 342 343 344 343 346 348 349 348 344 344 343 342 338 332 318 296 266 247 231 224 215 208 208 213 215 203 195 192 191 191
242 258 272 287 302 311 317 325 331 334 337 340 342 342 342 343 344 347 349 350 349 345 345 345 342 340 332 317 294 267 247 233 222 212 206 203 207 211 201 195 190 190 189
248 264 278 293 307 316 322 329 332 337 342 345 343 341 342 342 344 346 348 350 350 349 345 347 344 341 332 313 289 266 247 233 217 206 203 199 201 206 199 193 188 190 188
256 267 280 293 303 312 320 327 333 337 339 341 342 343 342 339 340 342 345 349 351 351 347 348 346 342 333 307 281 261 242 223 208 201 198 196 196 200 196 191 188 190 188
261 270 280 290 299 308 316 322 326 330 333 334 336 339 339 340 340 340 341 347 350 351 348 346 347 345 335 303 264 245 228 213 204 198 195 195 195 196 196 190 187 190 189